DW2227 Weather Reports


Display with metric or nautical units.
time (UTC)temp
F
wind
direction
speed
MPH
gust
MPH
rain 1hr
in
rain 24hr
in
rain mn
in
humidity
%
barometer
mb
20260901035827 77 248 0.0 0.0 0.00 0.00 0.00 90 1013.9
20260901035320 77 248 0.0 0.0 0.00 0.00 0.00 90 1013.9
20260901034856 77 248 0.0 0.0 0.00 0.00 0.00 90 1013.9
20260901034330 77 248 0.0 0.0 0.00 0.00 0.00 90 1013.9
20260901033844 77 248 0.0 0.0 0.00 0.00 0.00 90 1013.8
20260901033329 77 248 0.0 0.0 0.00 0.00 0.00 89 1013.9
20260901032824 77 248 0.0 0.0 0.00 0.00 0.00 89 1013.8
20260901032317 77 248 0.0 0.0 0.00 0.00 0.00 90 1013.8
20260901031827 77 248 0.0 0.0 0.00 0.00 0.00 89 1013.7
20260901031323 77 248 0.0 0.0 0.00 0.00 0.00 89 1013.8
20260901030839 77 248 0.0 0.0 0.00 0.00 0.00 89 1013.8
20260901030326 78 248 0.0 0.0 0.00 0.00 0.00 89 1013.8
20260901025821 78 248 0.0 0.0 0.00 0.00 0.00 89 1013.9
20260901025318 78 248 0.0 0.0 0.00 0.00 0.00 89 1013.8
20260901024832 78 248 0.0 0.0 0.00 0.00 0.00 89 1013.8
20260901024325 78 248 0.0 0.0 0.00 0.00 0.00 89 1013.9
20260901023819 78 248 0.0 0.0 0.00 0.00 0.00 89 1013.8
20260901023354 78 248 0.0 0.0 0.00 0.00 0.00 89 1013.8
20260901022828 79 248 0.0 0.0 0.00 0.00 0.00 89 1013.9
20260901022323 79 248 0.0 0.0 0.00 0.00 0.00 89 1013.8
20260901021817 79 248 0.0 0.0 0.00 0.00 0.00 89 1013.7
20260901021333 79 248 0.0 0.0 0.00 0.00 0.00 89 1013.4
20260901020826 79 248 0.0 0.0 0.00 0.00 0.00 88 1013.5
20260901020320 79 248 0.0 0.0 0.00 0.00 0.00 88 1013.4
20260901015835 80 248 0.0 0.0 0.00 0.00 0.00 88 1013.4
20260901015329 80 248 0.0 0.0 0.00 0.00 0.00 88 1013.3
20260901014824 80 248 0.0 0.0 0.00 0.00 0.00 88 1013.3
20260901014340 80 248 0.0 0.0 0.00 0.00 0.00 87 1013.3
20260901013853 80 248 0.0 0.0 0.00 0.00 0.00 87 1013.3
20260901013347 81 248 0.0 0.0 0.00 0.00 0.00 87 1013.2
20260901012820 81 248 0.0 0.0 0.00 0.00 0.00 87 1013.1
20260901012316 81 248 0.0 0.0 0.00 0.00 0.00 87 1013.1
20260901011830 81 248 0.0 0.0 0.00 0.00 0.00 87 1013.1
20260901011325 81 248 0.0 0.0 0.00 0.00 0.00 87 1013.1
20260901010817 82 248 0.0 0.0 0.00 0.00 0.00 86 1013.0
20260901010353 82 248 0.0 0.0 0.00 0.00 0.00 86 1013.0
20260901005827 82 248 0.0 0.0 0.00 0.00 0.00 85 1012.9
20260901005343 82 248 0.0 0.0 0.00 0.00 0.00 85 1012.8
20260901004832 83 248 0.0 0.0 0.00 0.00 0.00 85 1012.8
20260901004344 83 248 0.0 0.0 0.00 0.00 0.00 84 1012.8
20260901003818 84 248 0.0 0.0 0.00 0.00 0.00 84 1012.8
20260901003332 84 248 0.0 0.0 0.00 0.00 0.00 83 1012.9
20260901002826 84 248 0.0 0.0 0.00 0.00 0.00 83 1012.9
20260901002321 85 248 0.0 0.0 0.00 0.00 0.00 81 1012.8
20260901001817 85 248 0.0 0.0 0.00 0.00 0.00 80 1012.8
20260901001332 85 248 0.0 0.0 0.00 0.00 0.00 80 1012.8
20260901000826 85 248 0.0 0.0 0.00 0.00 0.00 80 1012.7
20260901000322 86 248 0.0 0.0 0.00 0.00 0.00 78 1012.8
20260831235818 86 248 0.0 0.0 0.00 0.00 0.00 77 1012.9
20260831235334 86 248 0.0 0.0 0.00 0.00 0.00 76 1013.0
20260831234829 87 248 0.0 0.0 0.00 0.00 0.00 75 1012.9
20260831234325 87 248 0.0 0.0 0.00 0.00 0.00 75 1012.9
20260831233820 87 248 0.0 0.0 0.00 0.00 0.00 76 1013.0
20260831233333 88 248 0.0 0.0 0.00 0.00 0.00 73 1012.9
20260831232848 88 248 0.0 0.0 0.00 0.00 0.00 72 1012.8
20260831232322 88 248 0.0 0.0 0.00 0.00 0.00 71 1012.8
20260831231856 88 248 0.0 0.0 0.00 0.00 0.00 70 1012.9
20260831231331 88 248 0.0 0.0 0.00 0.00 0.00 72 1012.9
20260831230825 88 248 0.0 1.0 0.00 0.00 0.00 70 1012.9
20260831230320 88 248 0.0 1.0 0.00 0.00 0.00 69 1012.8
20260831225834 89 248 0.0 1.0 0.00 0.00 0.00 70 1012.9
20260831225323 89 248 0.0 0.0 0.00 0.00 0.00 70 1012.8
20260831224818 89 248 0.0 1.0 0.00 0.00 0.00 70 1012.7
20260831224353 89 248 0.0 1.0 0.00 0.00 0.00 69 1012.7
20260831223840 89 171 0.0 1.0 0.00 0.00 0.00 69 1012.7
20260831223355 89 90 0.0 1.0 0.00 0.00 0.00 68 1012.7
20260831222828 89 90 0.0 1.0 0.00 0.00 0.00 68 1012.8
20260831222344 89 71 0.0 0.0 0.00 0.00 0.00 68 1012.6
20260831221819 89 350 0.0 1.0 0.00 0.00 0.00 69 1012.5
20260831221333 89 350 0.0 1.0 0.00 0.00 0.00 68 1012.6
20260831220828 89 346 0.0 1.0 0.00 0.00 0.00 68 1012.6
20260831220323 89 346 0.0 1.0 0.00 0.00 0.00 69 1012.6
20260831215835 89 74 0.0 0.0 0.00 0.00 0.00 69 1012.6
20260831215349 89 74 0.0 0.0 0.00 0.00 0.00 69 1012.8
20260831214822 89 74 0.0 1.0 0.00 0.00 0.00 69 1012.8
20260831214320 89 82 0.0 1.0 0.00 0.00 0.00 66 1012.9
20260831213835 90 5 0.0 1.0 0.00 0.00 0.00 66 1012.9
20260831213330 90 107 0.0 1.0 0.00 0.00 0.00 64 1012.9
20260831212823 90 107 0.0 1.0 0.00 0.00 0.00 63 1012.9
20260831212318 90 32 0.0 2.0 0.00 0.00 0.00 64 1012.9
20260831211834 91 294 0.0 2.0 0.00 0.00 0.00 64 1012.9
20260831211328 91 191 0.0 2.0 0.00 0.00 0.00 64 1012.9
20260831210824 91 117 0.0 3.0 0.00 0.00 0.00 61 1012.9
20260831210357 91 240 1.0 3.0 0.00 0.00 0.00 61 1012.8
20260831205832 92 144 0.0 1.0 0.00 0.00 0.00 64 1012.8
20260831205327 91 38 0.0 1.0 0.00 0.00 0.00 65 1012.8
20260831204819 91 238 0.0 3.0 0.00 0.00 0.00 65 1012.7
20260831204334 91 355 1.0 3.0 0.00 0.00 0.00 64 1012.8
20260831203828 91 13 0.0 2.0 0.00 0.00 0.00 62 1012.9
20260831203320 92 275 0.0 2.0 0.00 0.00 0.00 61 1012.9
20260831202851 92 183 0.0 2.0 0.00 0.00 0.00 60 1013.0
20260831202323 92 350 0.0 2.0 0.00 0.00 0.00 60 1013.0
20260831201817 92 350 0.0 1.0 0.00 0.00 0.00 60 1012.9
20260831201334 92 5 0.0 2.0 0.00 0.00 0.00 63 1012.8
20260831200830 92 209 0.0 2.0 0.00 0.00 0.00 62 1012.8
20260831200325 92 123 0.0 2.0 0.00 0.00 0.00 60 1012.8
20260831195820 92 133 0.0 4.0 0.00 0.00 0.00 60 1012.7
20260831195333 93 29 0.0 4.0 0.00 0.00 0.00 58 1012.8
20260831194828 93 196 1.0 2.0 0.00 0.00 0.00 56 1012.8
20260831194322 93 126 0.0 2.0 0.00 0.00 0.00 59 1012.7
20260831193816 93 296 0.0 2.0 0.00 0.00 0.00 60 1012.9
20260831193331 93 226 0.0 2.0 0.00 0.00 0.00 61 1012.8
20260831192824 92 226 0.0 2.0 0.00 0.00 0.00 61 1012.8
20260831192318 92 229 0.0 2.0 0.00 0.00 0.00 58 1012.9
20260831191833 92 192 0.0 2.0 0.00 0.01 0.00 58 1012.8
20260831191328 92 225 0.0 1.0 0.00 0.01 0.00 58 1012.8
20260831190824 92 194 0.0 3.0 0.00 0.01 0.00 59 1012.8
20260831190319 92 207 1.0 4.0 0.00 0.01 0.00 59 1012.7
20260831185832 92 155 1.0 4.0 0.00 0.01 0.00 56 1012.7
20260831185325 92 337 1.0 3.0 0.00 0.01 0.00 58 1012.7
20260831184821 91 209 1.0 3.0 0.00 0.01 0.00 59 1012.7
20260831184317 91 250 1.0 2.0 0.00 0.01 0.00 56 1012.8
20260831183833 91 5 0.0 2.0 0.00 0.01 0.00 59 1012.9
20260831183325 91 245 0.0 3.0 0.00 0.01 0.00 61 1013.1
20260831182820 91 219 0.0 4.0 0.00 0.01 0.00 60 1013.0
20260831182317 91 140 1.0 4.0 0.00 0.01 0.00 57 1013.1
20260831181825 91 84 1.0 4.0 0.00 0.01 0.00 60 1013.1
20260831181318 90 355 1.0 4.0 0.00 0.01 0.00 58 1013.1
20260831180833 90 266 1.0 4.0 0.00 0.01 0.00 61 1013.1
20260831180326 90 237 0.0 4.0 0.00 0.01 0.00 61 1013.1
20260831175842 89 5 0.0 3.0 0.00 0.01 0.00 61 1013.1
20260831175354 89 244 0.0 2.0 0.00 0.01 0.00 62 1013.2
20260831174827 89 136 0.0 3.0 0.00 0.01 0.00 63 1012.9
20260831174322 89 312 1.0 3.0 0.00 0.01 0.00 62 1013.1
20260831173832 89 250 1.0 3.0 0.00 0.01 0.00 60 1013.2
20260831173326 89 98 0.0 3.0 0.00 0.01 0.00 66 1013.2
20260831172823 88 296 1.0 5.0 0.00 0.01 0.00 62 1013.2
20260831172317 88 240 0.0 5.0 0.00 0.01 0.00 62 1013.4
20260831171832 88 289 1.0 6.0 0.00 0.01 0.00 60 1013.3
20260831171326 89 340 1.0 6.0 0.00 0.01 0.00 60 1013.4
20260831170820 88 294 1.0 4.0 0.00 0.01 0.00 60 1013.4
20260831170354 88 314 1.0 4.0 0.00 0.01 0.00 61 1013.3
20260831165824 89 295 1.0 5.0 0.00 0.01 0.00 61 1013.3
20260831165319 89 267 1.0 5.0 0.00 0.01 0.00 58 1013.4
20260831164833 89 327 1.0 4.0 0.00 0.01 0.00 58 1013.4
20260831164326 89 273 1.0 4.0 0.00 0.01 0.00 59 1013.5
20260831163819 89 305 1.0 3.0 0.00 0.01 0.00 62 1013.4
20260831163334 88 293 0.0 4.0 0.00 0.01 0.00 62 1013.4
20260831162829 88 336 1.0 4.0 0.00 0.01 0.00 61 1013.5
20260831162323 88 300 1.0 3.0 0.00 0.01 0.00 64 1013.4
20260831161818 88 34 1.0 2.0 0.00 0.01 0.00 64 1013.3
20260831161332 87 202 0.0 3.0 0.00 0.01 0.00 63 1013.4
20260831160848 87 328 0.0 4.0 0.00 0.01 0.00 65 1013.3
20260831160321 86 254 1.0 10.0 0.00 0.01 0.00 64 1013.3
20260831155818 86 306 2.0 10.0 0.00 0.01 0.00 62 1013.2
20260831155332 85 210 1.0 5.0 0.00 0.01 0.00 66 1013.1
20260831154825 85 294 2.0 5.0 0.00 0.01 0.00 61 1013.3
20260831154318 85 267 1.0 5.0 0.00 0.01 0.00 65 1013.2
20260831153853 85 143 0.0 4.0 0.00 0.01 0.00 64 1013.2
20260831153325 85 24 1.0 4.0 0.00 0.01 0.00 66 1013.2
20260831152818 84 355 1.0 5.0 0.00 0.01 0.00 67 1013.2
20260831152333 84 289 1.0 5.0 0.00 0.01 0.00 69 1013.1
20260831151827 84 269 0.0 5.0 0.00 0.01 0.00 66 1013.2
20260831151322 83 278 1.0 5.0 0.00 0.01 0.00 66 1013.0
20260831150835 83 196 1.0 5.0 0.00 0.01 0.00 67 1013.0
20260831150344 83 120 1.0 2.0 0.00 0.01 0.00 69 1013.1
20260831145817 82 150 0.0 2.0 0.00 0.01 0.00 69 1013.1
20260831145332 82 53 0.0 3.0 0.00 0.01 0.00 68 1013.1
20260831144826 81 192 0.0 3.0 0.00 0.01 0.00 70 1012.9
20260831144320 81 12 0.0 3.0 0.00 0.01 0.00 71 1012.9
20260831143834 81 229 0.0 3.0 0.00 0.01 0.00 72 1012.9
20260831143327 80 345 0.0 3.0 0.00 0.01 0.00 72 1012.9
20260831142820 80 257 1.0 3.0 0.00 0.01 0.00 70 1013.0
20260831142335 79 315 0.0 3.0 0.00 0.01 0.00 72 1012.9
20260831141829 79 5 0.0 3.0 0.00 0.02 0.00 73 1012.8
20260831141325 79 170 0.0 3.0 0.00 0.02 0.00 72 1012.8
20260831140838 79 69 0.0 3.0 0.00 0.02 0.00 72 1012.7
20260831140332 79 321 1.0 3.0 0.00 0.02 0.00 72 1012.8
20260831135845 79 84 0.0 3.0 0.00 0.02 0.00 72 1012.7
20260831135319 78 241 1.0 11.0 0.00 0.02 0.00 72 1012.7
20260831134831 78 279 1.0 11.0 0.00 0.02 0.00 71 1012.6
20260831134345 78 190 1.0 4.0 0.00 0.02 0.00 73 1012.7
20260831133819 78 69 0.0 5.0 0.00 0.02 0.00 73 1012.6
20260831133334 77 22 1.0 5.0 0.00 0.02 0.00 72 1012.6
20260831132848 77 192 1.0 4.0 0.00 0.02 0.00 73 1012.6
20260831132322 77 289 1.0 4.0 0.00 0.02 0.00 73 1012.6
20260831131817 77 221 1.0 3.0 0.00 0.03 0.00 73 1012.6
20260831131329 77 5 0.0 3.0 0.00 0.03 0.00 74 1012.6
20260831130823 76 28 0.0 8.0 0.00 0.03 0.00 74 1012.7
20260831130318 76 5 1.0 8.0 0.00 0.03 0.00 74 1012.8
20260831125829 76 5 0.0 4.0 0.00 0.03 0.00 74 1012.7
20260831125324 76 197 0.0 2.0 0.00 0.03 0.00 73 1012.8
20260831124819 76 32 0.0 2.0 0.00 0.03 0.00 73 1012.7
20260831124353 76 126 0.0 2.0 0.00 0.03 0.00 73 1012.9
20260831123826 76 39 0.0 4.0 0.00 0.03 0.00 74 1012.8
20260831123319 76 114 1.0 4.0 0.00 0.03 0.00 73 1012.8
20260831122854 76 51 0.0 2.0 0.00 0.03 0.00 74 1012.9
20260831122328 76 290 0.0 2.0 0.00 0.03 0.00 74 1012.8
20260831121822 76 320 0.0 2.0 0.00 0.03 0.00 74 1012.8
20260831121338 76 333 0.0 4.0 0.00 0.03 0.00 74 1012.7
20260831120832 76 25 0.0 4.0 0.00 0.03 0.00 74 1012.7
20260831120326 75 307 0.0 1.0 0.00 0.03 0.00 75 1012.6
20260831115821 75 307 0.0 2.0 0.00 0.03 0.00 74 1012.6
20260831115335 75 34 0.0 2.0 0.00 0.03 0.00 74 1012.5
20260831114828 75 65 0.0 2.0 0.00 0.03 0.00 74 1012.5
20260831114323 75 243 0.0 4.0 0.00 0.03 0.00 74 1012.5
20260831113857 75 134 0.0 4.0 0.00 0.03 0.00 74 1012.5
20260831113331 75 313 0.0 3.0 0.00 0.03 0.00 74 1012.4
20260831112825 75 183 0.0 3.0 0.00 0.03 0.00 74 1012.5
20260831112321 75 16 0.0 2.0 0.00 0.03 0.00 75 1012.6
20260831111835 75 300 0.0 2.0 0.00 0.03 0.00 75 1012.6
20260831111329 75 273 0.0 2.0 0.00 0.03 0.00 75 1012.6
20260831110824 75 350 0.0 2.0 0.00 0.03 0.00 75 1012.6
20260831110318 75 331 0.0 2.0 0.00 0.03 0.00 75 1012.7
20260831105832 75 296 0.0 1.0 0.00 0.03 0.00 75 1012.6
20260831105328 75 296 0.0 1.0 0.00 0.03 0.00 75 1012.6
20260831104821 75 194 0.0 3.0 0.00 0.03 0.00 75 1012.7
20260831104316 75 46 0.0 1.0 0.00 0.03 0.00 75 1012.6
20260831103827 75 21 0.0 1.0 0.00 0.03 0.00 75 1012.7
20260831103321 75 67 0.0 2.0 0.00 0.03 0.00 75 1012.6
20260831102817 75 317 0.0 2.0 0.00 0.03 0.00 75 1012.6
20260831102332 75 49 0.0 1.0 0.00 0.03 0.00 75 1012.7
20260831101828 75 67 0.0 1.0 0.00 0.03 0.00 75 1012.6
20260831101343 75 54 0.0 1.0 0.00 0.03 0.00 75 1012.6
20260831100817 75 29 0.0 1.0 0.00 0.03 0.00 75 1012.6
20260831100333 75 15 0.0 2.0 0.00 0.03 0.00 75 1012.6
20260831095827 75 288 0.0 2.0 0.00 0.03 0.00 75 1012.6
20260831095324 75 288 0.0 1.0 0.00 0.03 0.00 75 1012.7
20260831094819 75 221 0.0 1.0 0.00 0.03 0.00 75 1012.8
20260831094334 75 94 0.0 1.0 0.00 0.03 0.00 74 1012.8
20260831093849 75 82 0.0 2.0 0.00 0.03 0.00 74 1012.8
20260831093323 75 88 0.0 2.0 0.00 0.03 0.00 75 1012.8
20260831092818 75 110 0.0 3.0 0.00 0.03 0.00 75 1012.8
20260831092333 75 300 0.0 3.0 0.00 0.03 0.00 75 1012.8
20260831091827 75 171 0.0 1.0 0.00 0.03 0.00 74 1012.7
20260831091342 75 114 0.0 1.0 0.00 0.03 0.00 75 1012.8
20260831090831 75 91 0.0 2.0 0.00 0.03 0.00 74 1012.8
20260831090324 75 55 0.0 2.0 0.00 0.03 0.00 74 1012.7
20260831085819 75 98 0.0 2.0 0.00 0.03 0.00 74 1012.7
20260831085333 76 112 0.0 2.0 0.00 0.03 0.00 73 1012.7
20260831084847 76 103 0.0 2.0 0.00 0.03 0.00 74 1012.5
20260831084320 76 163 0.0 2.0 0.00 0.03 0.00 73 1012.6
20260831083836 76 95 0.0 2.0 0.00 0.03 0.00 73 1012.5
20260831083329 76 96 0.0 2.0 0.00 0.03 0.00 73 1012.5
20260831082825 76 97 0.0 2.0 0.00 0.03 0.00 73 1012.4
20260831082321 76 105 0.0 2.0 0.00 0.03 0.00 73 1012.4
20260831081834 76 338 0.0 1.0 0.00 0.03 0.00 73 1012.4
20260831081329 76 56 0.0 1.0 0.00 0.03 0.00 73 1012.3
20260831080824 76 355 0.0 1.0 0.00 0.03 0.00 73 1012.4
20260831080318 76 23 0.0 2.0 0.00 0.03 0.00 73 1012.3
20260831075833 76 96 0.0 2.0 0.00 0.03 0.00 73 1012.4
20260831075326 76 88 0.0 2.0 0.00 0.03 0.00 73 1012.4
20260831074819 76 105 0.0 2.0 0.00 0.03 0.00 73 1012.4
20260831074330 76 113 0.0 2.0 0.00 0.03 0.00 74 1012.4
20260831073823 76 76 0.0 2.0 0.00 0.03 0.00 73 1012.5
20260831073318 76 77 0.0 2.0 0.00 0.03 0.00 73 1012.5
20260831072834 76 63 0.0 2.0 0.00 0.03 0.00 73 1012.5
20260831072328 76 30 0.0 2.0 0.00 0.03 0.00 74 1012.6
20260831071823 76 125 0.0 3.0 0.00 0.03 0.00 74 1012.7
20260831071319 76 91 0.0 3.0 0.00 0.03 0.00 74 1012.8
20260831070827 76 91 0.0 2.0 0.00 0.03 0.00 74 1012.8
20260831070319 76 138 0.0 2.0 0.00 0.03 0.00 74 1012.8
20260831065831 76 92 0.0 1.0 0.00 0.03 0.00 75 1012.8
20260831065346 76 61 0.0 1.0 0.00 0.03 0.00 75 1012.9
20260831064817 76 68 0.0 2.0 0.00 0.03 0.00 75 1012.9
20260831064332 76 70 0.0 2.0 0.00 0.03 0.00 75 1012.9
20260831063828 77 136 0.0 2.0 0.00 0.03 0.00 75 1012.9
20260831063343 77 136 0.0 2.0 0.00 0.03 0.00 75 1012.8
20260831062831 77 125 0.0 1.0 0.00 0.03 0.00 75 1012.9
20260831062325 77 124 0.0 2.0 0.00 0.03 0.00 74 1012.9
20260831061820 77 136 0.0 2.0 0.00 0.03 0.00 74 1012.9
20260831061333 77 171 0.0 3.0 0.00 0.03 0.00 74 1013.0
20260831060827 77 104 0.0 3.0 0.00 0.03 0.00 74 1013.1
20260831060322 77 127 0.0 2.0 0.00 0.03 0.00 74 1013.0
20260831055818 77 90 0.0 0.0 0.00 0.03 0.00 75 1013.1
20260831055334 77 101 0.0 1.0 0.00 0.03 0.00 74 1013.1
20260831054829 77 101 0.0 1.0 0.00 0.03 0.00 74 1013.0
20260831054322 77 38 0.0 1.0 0.00 0.03 0.00 76 1013.1
20260831053817 77 26 0.0 2.0 0.00 0.03 0.00 75 1013.0
20260831053331 77 126 0.0 2.0 0.00 0.03 0.00 74 1013.0
20260831052826 77 94 0.0 2.0 0.00 0.03 0.00 75 1013.1
20260831052322 77 154 0.0 1.0 0.00 0.03 0.00 75 1013.1
20260831051817 77 146 0.0 1.0 0.00 0.03 0.03 76 1013.2
20260831051332 77 134 0.0 2.0 0.00 0.03 0.03 76 1013.0
20260831050823 77 75 0.0 2.0 0.00 0.03 0.03 75 1013.0
20260831050354 78 111 0.0 2.0 0.00 0.03 0.03 75 1013.0
20260831045822 78 69 0.0 2.0 0.00 0.03 0.03 76 1013.0
20260831045316 78 60 0.0 2.0 0.00 0.03 0.03 76 1013.0
20260831044832 78 95 0.0 2.0 0.00 0.03 0.03 76 1013.1
20260831044325 78 114 0.0 2.0 0.00 0.03 0.03 77 1013.2
20260831043840 78 98 0.0 2.0 0.00 0.03 0.03 77 1013.3
20260831043354 78 99 0.0 2.0 0.00 0.03 0.03 78 1013.4
20260831042825 78 113 0.0 2.0 0.00 0.03 0.03 78 1013.4
20260831042320 78 111 0.0 1.0 0.00 0.03 0.03 79 1013.4
20260831041855 78 111 0.0 1.0 0.00 0.03 0.03 79 1013.4
20260831041327 78 111 0.0 2.0 0.00 0.03 0.03 79 1013.4
20260831040821 78 150 0.0 3.0 0.00 0.03 0.03 79 1013.3
20260831040318 78 151 1.0 3.0 0.00 0.03 0.03 79 1013.4